Location: Unspecified
(0.0000°N, 0.0000°E)
Time: 17:00:34

XW-2C - Pass Details

Date: 16 December 2017
Orbit: 511 x 531 km, 97.5° (Epoch: 20 March)

Event Time Altitude Azimuth Distance (km) Brightness Sun altitude
Rises 18:17:08 0° 190° (S) 2,621 ? -4.9°
Reaches altitude 10° 18:19:31 10° 205° (SSW) 1,735 ? -5.4°
Maximum altitude 18:22:32 23° 259° (WSW) 1,112 ? -6.1°
Drops below altitude 10° 18:25:34 10° 313° (NW) 1,736 ? -6.8°
Sets 18:27:57 0° 327° (NNW) 2,623 ? -7.4°
